www.pogodaiklimat.ru
ПОГОДА в Беннингтоне
Время
и дата
07:54 20.09
08:54 20.09
09:54 20.09
10:54 20.09
11:54 20.09
12:54 20.09
13:54 20.09
14:54 20.09
15:54 20.09
16:54 20.09
17:54 20.09
18:54 20.09
19:54 20.09
20:54 20.09
21:54 20.09
22:54 20.09
23:54 20.09
00:54 21.09
01:54 21.09
02:54 21.09
03:54 21.09
04:54 21.09
05:54 21.09
06:54 21.09
07:54 21.09
08:54 21.09
09:54 21.09
10:54 21.09
11:54 21.09
12:54 21.09
13:54 21.09
14:54 21.09
15:54 21.09
16:54 21.09
17:54 21.09
18:54 21.09
19:54 21.09
20:54 21.09
21:54 21.09
22:54 21.09
23:54 21.09
00:54 22.09
01:54 22.09
02:54 22.09
03:38 22.09
03:49 22.09
03:54 22.09
04:54 22.09
Ветер
(напр.,м/с)
Видим. Явления Облачность Т
(С)
Тd
(С)
f
(%)
Тe
(С)
Тes
(С)
Комфортность P
(гПа)
Po
(гПа)
Тmin
(С)
Tmax
(С)
R
(мм)
R24
(мм)
S
(см)
штиль 0 16 км ясно +13.9 +11.1 83 +14 +15 1028.1 997.6
штиль 0 16 км ясно +17.2 +12.8 75 +17 +22 1028.0 997.6
штиль 0 16 км ясно +20.0 +12.8 63 +22 +30 комфорт 1028.0 997.6
штиль 0 16 км ясно +22.2 +12.2 53 +25 +37 комфорт 1027.6 997.3
ЮЗ 2 16 км ясно +22.8 +12.2 51 +25 +33 комфорт 1027.3 997.0
ЮВ 2 16 км ясно +23.9 +11.1 45 +25 +33 комфорт 1026.9 996.6 +10.6 +23.9
Ю 2 16 км ясно +23.9 +12.2 48 +26 +33 жарко 1026.7 996.3
Ю 1 16 км ясно +23.9 +12.2 48 +26 +33 жарко 1026.5 996.3
Ю 1 16 км ясно +22.8 +13.3 55 +26 +31 жарко 1026.5 996.3
Ю 1 16 км ясно +22.8 +13.9 57 +26 +29 жарко 1026.9 996.6
ЮВ 1 16 км ясно +18.9 +13.9 73 +20 +21 1027.2 996.6
ЮВ 2 16 км ясно +18.3 +13.9 76 +19 +19 1027.4 997.0 +18.3 +24.4
В 1 16 км ясно +17.8 +13.3 75 +18 +18 1027.6 997.3
нст 1 16 км ясно +15.6 +13.3 86 +15 +15 1027.7 997.3
штиль 0 16 км ясно +14.4 +13.3 93 +14 +14 1027.9 997.6
СВ 1 16 км ясно +16.1 +13.3 83 +16 +16 1027.9 997.6
ЮВ 1 16 км ясно +15.0 +12.8 87 +14 +14 1028.1 998.0
СВ 1 16 км ясно +13.3 +12.2 93 +13 +13 1028.5 998.3 +13.3 +18.3
штиль 0 16 км ясно +12.2 +11.1 93 +12 +12 1028.5 998.3
штиль 0 16 км ясно +10.6 +10.6 100 +10 +10 1028.1 998.0
штиль 0 16 км ясно +11.1 +10.6 97 +10 +10 1028.3 998.0
ЮВ 1 16 км ясно +10.0 +9.4 96 +8 +8 1028.5 998.3
ЮВ 1 16 км ясно +9.4 +8.9 97 +8 +8 1028.8 998.3
Ю 1 16 км 2/2 570 м +14.4 +12.8 90 +14 +14 1028.8 998.6 +9.4 +14.4
штиль 0 16 км ясно +16.7 +12.2 75 +17 +18 1028.5 998.3
ЮЗ 2 16 км ясно +17.8 +11.7 67 +17 +19 1028.5 998.3
ЮВ 3
{4}
16 км ясно +19.4 +12.2 63 +20 +23 1028.0 998.0
ЮВ 3
{4}
16 км ясно +20.6 +10.6 53 +22 +26 комфорт 1027.6 997.3
Ю 2
{4}
16 км ясно +21.7 +11.1 51 +24 +31 комфорт 1027.1 997.0
ЮВ 2
{4}
16 км ясно +22.2 +10.0 46 +24 +30 комфорт 1026.5 996.3 +14.4 +22.8
Ю 2
{4}
16 км ясно +22.8 +11.1 48 +25 +31 комфорт 1026.3 996.0
Ю 2 16 км ясно +22.2 +11.7 51 +24 +29 комфорт 1026.0 995.7
Ю 2 16 км ясно +21.7 +12.2 55 +24 +27 комфорт 1026.0 995.7
Ю 1 16 км 2/2 1320 м +20.0 +12.2 61 +22 +24 комфорт 1026.2 996.0
штиль 0 16 км ясно +16.7 +13.9 84 +17 +17 1026.2 995.7
Ю 1 16 км ясно +16.0 1025.9 995.7 +15.6 +22.8
штиль 0 16 км ясно +16.0 1026.0 995.7
ЮВ 2 16 км ясно +18.0 1025.3 995.3
СЗ 1 16 км ясно +17.0 1025.1 995.0
штиль 0 16 км ясно +15.0 1024.8 994.7
штиль 0 16 км ясно +16.0 1024.1 994.0
В 1 16 км ясно +17.0 1023.5 993.4 +14.4 +18.3
нст 1 16 км 10/10 1380 м +17.0 1022.7 992.7
штиль 0 16 км 8/8 780 м +17.0 1022.0 992.0
штиль 0 16 км 10/10 510 м +17.0 991.7
штиль 0 16 км 10/10 870 м +18.0 991.7
штиль 0 16 км 10/8 870 м
[Ac]
+17.0 1021.7 991.7
Ю 1 16 км 8/8 1200 м +19.0 1021.3 991.4
Местоположение метеостанции Bennington Morse State Airport: широта 42.8936 долгота -73.2486 высота над уровнем моря 252 м.
В архиве по умолчанию представлена погода в Беннингтоне за последние 1-2 суток. Обновление информации о фактической погоде в базе происходит ежечасно! Архивные данные за месяц целиком и за предыдущие месяцы Вы можете получить, выбрав интересующий диапазон дат из раскрывающегося списка и нажав кнопку "Ввод!".
Внимание! Архив погоды МЕТАР в базе сайта по станциям, не включенным в климатический монитор, хранится не более 60 дней. Нет смысла пытаться выбрать более раннюю дату.
*Определитесь, кто Вы:
Внимание! Время в таблицах - местное (без учета летнего времени). Для получения всемирного времени необходимо вычесть поправку, которая равна -5 ч.
Смотрите также архив погоды в соседних городах и на ближайших метеорологических станциях:
Партнеры нашего сайта:      
Пояснения к столбцам:
  • Ветер - указаны скорость ветра в м/с - средняя за 10 мин, порывы в срок и между сроками (в фигурных скобках) и направление, откуда дует ветер: С - северный,
  • СВ - северо-восточный, В - восточный, ЮВ - юго-восточный, Ю - южный, ЮЗ - юго-западный, З - западный, СЗ - северо-западный.
  • Видимость - горизонтальная дальность видимости в метрах или километрах. При видимости от 1 до 10 км при отсутствии осадков обычно наблюдается дымка, при ухудшении видимости до 1 км и менее - туман. В сухую погоду видимость может ухудшаться дымом, пылью или мглою.
  • Явления - указаны атмосферные явления, наблюдавшиеся в срок или в последний час перед сроком; фигурными скобками обозначены явления, наблюдавшиеся между сроками (за 1-3 часа до срока); квадратными скобками обозначены град или гололедные отложения с указанием их диаметра в мм.
  • Облачность - указаны через наклонную черту общая и нижняя облачность в баллах и высота нижней границы облаков в метрах; квадратными скобками обозначены формы облаков: Ci - перистые, Cs - перисто-слоистые, Cc - перисто-кучевые, Ac - высококучевые, As - высокослоистые, Sc - слоисто-кучевые, Ns - слоисто-дождевые, Cu - кучевые, Cb - кучево-дождевые. Подробнее классификацию облаков см. в Атласе облаков (PDF).
  • T - Температура воздуха - температура, измеренная на высоте 2 м над землей.
  • Td - Температура точки росы - температура, при понижении до которой содержащийся в воздухе водяной пар достигнет насыщения.
  • f - Относительная влажность воздуха - влажноcть воздуха, измеренная на высоте 2 м над землей.
  • Te - Эффективная температура - температура, которую ощущает одетый по сезону человек в тени. Характеристика душности погоды. При расчете учитывается влияние влажности воздуха и скорости ветра на теплоощущения человека.
  • Tes - Эффективная температура на солнце - температура, которую ощущает человек, с поправкой на солнечный нагрев. Характеристика знойности погоды. Зависит от высоты солнца над горизонтом, облачности и скорости ветра. Ночью, в пасмурную погоду, а также при ветре 12 м/с и более поправка равна нулю.
  • P - Атмосферное давление - приведенное к уровню моря атмосферное давление.
  • Po - Атмосферное давление - измеренное на уровне метеостанции атмосферное давление.
  • Tmin - Минимальная температура - минимум температуры воздуха на высоте 2 м над землей.
  • Tmax - Максимальная температура - максимум температуры воздуха на высоте 2 м над землей.
  • R - Количество осадков - Количество выпавших осадков за период времени, мм. При наведении курсора мыши на число - период времени, за который выпало указанное количество осадков.
  • R24 - Количество осадков - Количество выпавших осадков за 24 часа, мм.
  • S - Снежный покров - Высота снежного покрова, см. При наведении курсора мыши на число - состояние снежного покрова и степень покрытия местности в баллах.